Strona główna
METAR-TAF:

METAR-TAF

Lotnisko :

Port lotniczy Wakkanai

Wakkanai, Japonia

Szerokość geograficzna: 45-24N, Długość geograficzna: 141-48E, wysokość: 8 m

Aktualna obserwacja pogody

Raport powstał 9 godziny i 18 minut temu, godzina 09:00 UTC
Wiatr 10 kt od wschód
Temperatura 16°C
Wilgotność 88%
Ciśnienie 1013 hPa
Widzialność 10 km lub więcej
Mało chmury na wysokości 800 ft
Przerywane chmury na wysokości 1200 ft

METAR: RJCW 150900Z 09010KT 9999 FEW008 BKN012 16/14 Q1013

czas: 03:18 (18:18 UTC)


TAF: brakujący

Obserwacja i prognoza pogody dla ponad 4000 lotnisk (raport METAR i TAF).

Dostępne stacje oznaczono żółtymi i czerwonymi punktami na mapie.

Najedź kursorem aby zobaczyć nazwę stacji.

Kliknij aby zobaczyć obserwacje i prognozy pogody.

Aby zmienić mapę: kliknij na zielony przycisk z czarnym krzyżykiem, aby powiększyć; na zielony przycisk z myślnikiem, aby pomniejszyć; na zielone strzałki, aby przejść do map sąsiednich.


METAR-TAF: